SCP
0 0 0 0 -0 -0 -0 -0 -0 -0 -0 -0 -0 -0 -0 -0 -0 -0 0 0 0 0 1 0 0 0 0 0 0 0 0 0 0
-0 -0 0 0 -0 0 0 0 -0 -0 -0 -0 -0 -0 -0 -0 -0 -0 -0 -0 0 0 0 0 0 0 0 0 0 0 0 0 0
0 -0 0 0 0 -0 0 -0 -0 -0 -0 -0 -0 -0 -0 -0 -0 -0 -0 -0 0 1 0 0 0 0 0 0 0 0 0 0 0
0 0 0 -0 -0 -0 -0 -0 -0 -0 0 0 0 -0 0 0 -0 -0 -0 0 -0 0 0 0 -0 0 0 0 0 0 0 0 0
0 0 0 0 0 -0 -0 0 -0 -0 -0 0 0 0 0 0 0 0 -0 0 0 0 0 0 0 0 0 0 0 0 0 0 0
0 -0 0 0 -0 0 -0 0 0 0 0 0 0 0 -0 -0 -0 -0 -0 -0 -0 -0 0 0 0 0 0 0 0 0 0 0 0
-0 -0 -0 0 0 0 0 -0 0 0 0 0 0 0 -0 -0 -0 -0 -0 -1 -0 -0 -0 0 0 0 0 0 0 0 -0 0 0
-0 0 0 0 0 0 0 0 0 0 0 0 0 0 -0 0 0 -0 0 -0 -1 -0 -0 -0 -0 -0 -0 -0 0 0 -0 0 0
-0 -0 -0 -0 -0 0 -0 0 0 0 0 1 0 0 -0 0 0 -1 -0 -0 -0 -0 -0 -0 -0 -0 -0 -0 0 -0 -0 -0 0
0 -0 -0 0 -0 -0 -0 -0 0 0 1 0 0 0 0 0 0 0 -0 0 -0 -0 -0 -0 -0 -0 -0 -0 0 -0 -0 -0 0
0 0 0 0 0 0 -1 -1 -0 0 1 1 0 -0 0 0 -0 0 0 0 0 -0 -0 0 0 0 -0 -0 0 -0 -0 -0 0
0 0 -0 -0 -0 0 0 -1 -1 -0 -0 0 1 0 0 1 0 1 1 0 0 0 0 0 0 0 -0 0 0 -0 0 0 0
0 0 0 0 -0 -0 -0 1 1 0 0 0 1 1 0 1 1 2 1 1 0 0 0 0 0 0 0 0 -0 0 0 0 0
0 0 0 0 0 0 1 1 1 2 1 0 0 0 2 2 2 2 1 1 0 0 0 0 0 0 0 0 0 0 0 0 0
0 0 0 1 1 1 2 2 2 1 0 0 1 2 3 2 1 0 0 0 0 0 0 0 0 0 0 0 0 0 0 0 0
0 0 0 0 1 1 1 1 0 -0 0 1 2 3 1 0 0 0 0 0 0 0 0 0 0 0 0 0 0 0 0 0 0
0 0 1 0 0 0 0 0 0 0 0 0 1 2 1 0 1 0 0 0 0 0 0 0 0 0 0 0 0 0 0 0 0
0 0 0 1 1 1 0 0 0 0 1 1 2 2 1 0 1 0 0 0 0 0 0 0 0 0 0 0 0 0 0 0 0
0 0 0 1 1 0 1 1 0 0 1 1 1 1 0 0 0 0 0 0 0 0 0 0 0 0 0 0 0 0 0 0 0
0 0 0 1 0 0 0 1 0 0 0 0 0 0 0 0 0 0 0 0 0 0 0 0 0 0 0 0 0 0 0 0 0
Wind_Speed_500mb
17 35 40 51 61 62 64 64 59 57 58 57 54 49 45 50 48 42 37 27 20 16 19 17 14 12 6 5 3 1 5 10 14
10 20 28 35 48 57 58 66 65 60 59 59 53 49 46 44 43 42 39 31 26 24 21 20 21 20 11 7 5 3 6 11 15
4 8 18 27 35 41 51 61 66 63 63 61 50 48 42 43 38 40 39 36 31 32 32 29 28 27 21 13 8 5 6 11 10
4 8 13 18 19 26 37 47 63 65 63 65 64 58 48 49 47 41 42 38 40 37 32 32 32 29 26 20 12 8 7 9 7
7 9 12 17 18 13 22 39 52 61 58 63 64 67 59 45 41 37 37 46 39 43 38 33 29 29 27 23 25 16 7 5 2
17 19 10 9 11 23 24 22 34 39 48 54 61 67 61 62 38 39 48 53 48 40 39 37 26 24 30 27 37 31 13 4 6
22 23 19 10 12 9 15 23 31 40 44 48 51 54 58 64 65 55 48 51 55 38 38 36 24 21 17 24 41 28 11 9 8
31 33 27 21 16 8 8 14 29 34 42 48 52 53 52 61 66 58 56 52 54 41 42 35 29 26 18 34 42 28 21 12 16
31 30 30 30 29 28 18 19 26 41 47 54 56 66 63 49 52 55 56 60 58 42 32 34 34 28 18 45 41 30 23 21 21
23 26 31 33 39 41 37 17 16 27 38 48 54 61 59 54 49 62 63 66 64 47 37 41 37 29 32 44 43 28 25 26 25
29 33 30 32 37 35 37 34 19 13 28 43 48 60 71 73 46 61 71 74 69 56 46 45 39 32 44 49 39 34 31 33 30
34 41 38 35 32 35 29 29 24 13 13 34 46 53 71 84 67 65 74 75 70 62 51 51 47 40 48 48 41 36 35 37 35
33 36 40 41 43 33 27 25 18 7 1 17 25 39 60 66 70 72 77 78 74 67 52 53 52 49 49 45 40 38 40 39 38
24 36 44 40 36 33 28 22 27 19 12 14 16 20 36 50 65 73 74 79 75 62 56 56 53 50 53 48 41 38 42 40 38
22 30 37 31 29 26 27 30 24 25 27 22 25 22 38 52 65 70 60 41 52 51 54 52 52 52 55 50 44 40 42 40 37
24 31 29 33 31 30 31 27 27 26 22 25 26 26 28 48 60 55 49 23 70 64 36 52 57 58 62 56 49 45 42 42 40
26 30 29 28 28 29 35 37 38 36 38 36 33 31 28 43 49 48 43 39 50 74 50 58 61 67 68 59 55 55 53 49 42
30 32 32 30 31 35 43 48 47 42 39 37 39 43 45 45 42 52 61 49 39 39 42 67 82 76 68 61 59 58 53 49 44
30 38 39 38 34 39 42 43 44 35 28 26 31 38 44 38 35 56 53 52 38 46 40 58 73 71 58 51 46 48 48 42 36
39 42 43 41 37 38 40 37 30 21 11 7 18 21 27 31 37 52 54 53 40 35 30 59 62 54 45 39 36 44 46 44 43
Wind_Direction_500mb
218 204 208 214 220 225 224 225 228 230 224 219 222 225 229 232 234 235 235 242 245 233 227 216 196 201 209 198 223 294 348 344 349
201 201 210 218 221 227 229 225 224 225 226 219 222 225 229 233 234 235 238 241 246 246 227 225 212 189 190 197 211 286 332 342 346
9 246 238 238 239 232 231 229 228 226 225 225 220 221 226 228 229 233 235 236 245 240 229 214 211 205 188 190 214 262 317 337 343
321 287 265 261 249 238 232 228 225 227 225 225 223 224 223 227 222 226 229 232 238 243 232 227 208 209 202 198 202 235 303 327 324
8 307 265 252 252 243 231 217 229 233 229 225 225 225 224 223 226 236 232 234 239 240 236 229 215 217 206 206 207 203 249 296 291
42 43 26 350 277 248 254 253 231 225 226 226 223 225 227 222 217 229 228 235 239 235 239 222 215 219 226 226 204 192 181 172 160
67 70 63 39 353 288 257 250 247 229 224 224 220 222 219 221 219 218 221 229 233 234 227 214 214 203 220 234 195 176 147 117 156
67 58 65 65 54 25 287 252 219 224 225 221 219 210 205 217 218 215 208 220 226 229 212 216 213 212 225 196 187 198 194 195 167
62 61 56 60 60 49 41 209 207 217 222 218 210 204 200 216 207 195 201 211 211 217 206 206 212 221 222 186 193 196 198 183 166
35 41 37 33 37 41 45 61 205 212 219 220 213 210 213 213 210 202 205 205 206 215 218 199 199 209 193 188 192 196 187 173 171
4 4 5 11 3 7 25 36 58 181 207 215 216 215 216 218 215 200 203 201 210 215 210 194 197 202 186 181 190 193 183 175 175
360 354 353 350 356 349 356 12 29 52 186 206 217 226 219 221 223 213 206 201 208 213 201 194 194 197 188 191 192 190 186 183 179
356 354 348 342 347 337 348 358 2 358 334 219 216 227 227 229 225 219 214 209 207 208 201 198 195 192 189 192 197 193 187 184 180
354 355 344 328 332 333 328 342 342 327 265 254 262 228 233 231 230 224 217 210 210 203 199 196 195 195 191 193 200 197 189 184 183
334 340 347 337 330 339 340 333 331 328 317 293 247 234 226 222 219 213 202 198 214 205 200 197 196 196 195 195 196 200 190 184 184
322 332 327 338 328 322 319 322 314 304 305 293 257 244 231 228 225 216 191 254 265 264 218 212 200 197 199 197 194 192 193 188 190
320 316 315 319 326 326 326 320 312 309 299 285 268 250 242 234 223 203 220 215 210 200 242 224 209 199 201 200 198 194 192 194 195
316 309 305 298 301 312 316 311 310 300 287 271 265 248 240 235 214 203 185 189 182 211 255 276 221 207 205 204 204 201 198 198 193
298 303 302 293 286 299 310 312 313 309 295 279 258 245 239 213 207 193 190 196 209 217 232 219 208 209 210 209 212 203 194 194 190
306 295 293 285 281 301 313 314 316 323 343 296 263 252 228 212 206 207 202 202 199 166 226 200 199 204 211 211 199 193 192 191 189
Wind_Speed_850mb
17 35 40 51 61 62 64 64 59 57 58 57 54 49 45 50 48 42 37 27 20 16 19 17 14 12 6 5 3 1 5 10 14
10 20 28 35 48 57 58 66 65 60 59 59 53 49 46 44 43 42 39 31 26 24 21 20 21 20 11 7 5 3 6 11 15
4 8 18 27 35 41 51 61 66 63 63 61 50 48 42 43 38 40 39 36 31 32 32 29 28 27 21 13 8 5 6 11 10
4 8 13 18 19 26 37 47 63 65 63 65 64 58 48 49 47 41 42 38 40 37 32 32 32 29 26 20 12 8 7 9 7
7 9 12 17 18 13 22 39 52 61 58 63 64 67 59 45 41 37 37 46 39 43 38 33 29 29 27 23 25 16 7 5 2
17 19 10 9 11 23 24 22 34 39 48 54 61 67 61 62 38 39 48 53 48 40 39 37 26 24 30 27 37 31 13 4 6
22 23 19 10 12 9 15 23 31 40 44 48 51 54 58 64 65 55 48 51 55 38 38 36 24 21 17 24 41 28 11 9 8
31 33 27 21 16 8 8 14 29 34 42 48 52 53 52 61 66 58 56 52 54 41 42 35 29 26 18 34 42 28 21 12 16
31 30 30 30 29 28 18 19 26 41 47 54 56 66 63 49 52 55 56 60 58 42 32 34 34 28 18 45 41 30 23 21 21
23 26 31 33 39 41 37 17 16 27 38 48 54 61 59 54 49 62 63 66 64 47 37 41 37 29 32 44 43 28 25 26 25
29 33 30 32 37 35 37 34 19 13 28 43 48 60 71 73 46 61 71 74 69 56 46 45 39 32 44 49 39 34 31 33 30
34 41 38 35 32 35 29 29 24 13 13 34 46 53 71 84 67 65 74 75 70 62 51 51 47 40 48 48 41 36 35 37 35
33 36 40 41 43 33 27 25 18 7 1 17 25 39 60 66 70 72 77 78 74 67 52 53 52 49 49 45 40 38 40 39 38
24 36 44 40 36 33 28 22 27 19 12 14 16 20 36 50 65 73 74 79 75 62 56 56 53 50 53 48 41 38 42 40 38
22 30 37 31 29 26 27 30 24 25 27 22 25 22 38 52 65 70 60 41 52 51 54 52 52 52 55 50 44 40 42 40 37
24 31 29 33 31 30 31 27 27 26 22 25 26 26 28 48 60 55 49 23 70 64 36 52 57 58 62 56 49 45 42 42 40
26 30 29 28 28 29 35 37 38 36 38 36 33 31 28 43 49 48 43 39 50 74 50 58 61 67 68 59 55 55 53 49 42
30 32 32 30 31 35 43 48 47 42 39 37 39 43 45 45 42 52 61 49 39 39 42 67 82 76 68 61 59 58 53 49 44
30 38 39 38 34 39 42 43 44 35 28 26 31 38 44 38 35 56 53 52 38 46 40 58 73 71 58 51 46 48 48 42 36
39 42 43 41 37 38 40 37 30 21 11 7 18 21 27 31 37 52 54 53 40 35 30 59 62 54 45 39 36 44 46 44 43
Wind_Direction_850mb
218 204 208 214 220 225 224 225 228 230 224 219 222 225 229 232 234 235 235 242 245 233 227 216 196 201 209 198 223 294 348 344 349
201 201 210 218 221 227 229 225 224 225 226 219 222 225 229 233 234 235 238 241 246 246 227 225 212 189 190 197 211 286 332 342 346
9 246 238 238 239 232 231 229 228 226 225 225 220 221 226 228 229 233 235 236 245 240 229 214 211 205 188 190 214 262 317 337 343
321 287 265 261 249 238 232 228 225 227 225 225 223 224 223 227 222 226 229 232 238 243 232 227 208 209 202 198 202 235 303 327 324
8 307 265 252 252 243 231 217 229 233 229 225 225 225 224 223 226 236 232 234 239 240 236 229 215 217 206 206 207 203 249 296 291
42 43 26 350 277 248 254 253 231 225 226 226 223 225 227 222 217 229 228 235 239 235 239 222 215 219 226 226 204 192 181 172 160
67 70 63 39 353 288 257 250 247 229 224 224 220 222 219 221 219 218 221 229 233 234 227 214 214 203 220 234 195 176 147 117 156
67 58 65 65 54 25 287 252 219 224 225 221 219 210 205 217 218 215 208 220 226 229 212 216 213 212 225 196 187 198 194 195 167
62 61 56 60 60 49 41 209 207 217 222 218 210 204 200 216 207 195 201 211 211 217 206 206 212 221 222 186 193 196 198 183 166
35 41 37 33 37 41 45 61 205 212 219 220 213 210 213 213 210 202 205 205 206 215 218 199 199 209 193 188 192 196 187 173 171
4 4 5 11 3 7 25 36 58 181 207 215 216 215 216 218 215 200 203 201 210 215 210 194 197 202 186 181 190 193 183 175 175
360 354 353 350 356 349 356 12 29 52 186 206 217 226 219 221 223 213 206 201 208 213 201 194 194 197 188 191 192 190 186 183 179
356 354 348 342 347 337 348 358 2 358 334 219 216 227 227 229 225 219 214 209 207 208 201 198 195 192 189 192 197 193 187 184 180
354 355 344 328 332 333 328 342 342 327 265 254 262 228 233 231 230 224 217 210 210 203 199 196 195 195 191 193 200 197 189 184 183
334 340 347 337 330 339 340 333 331 328 317 293 247 234 226 222 219 213 202 198 214 205 200 197 196 196 195 195 196 200 190 184 184
322 332 327 338 328 322 319 322 314 304 305 293 257 244 231 228 225 216 191 254 265 264 218 212 200 197 199 197 194 192 193 188 190
320 316 315 319 326 326 326 320 312 309 299 285 268 250 242 234 223 203 220 215 210 200 242 224 209 199 201 200 198 194 192 194 195
316 309 305 298 301 312 316 311 310 300 287 271 265 248 240 235 214 203 185 189 182 211 255 276 221 207 205 204 204 201 198 198 193
298 303 302 293 286 299 310 312 313 309 295 279 258 245 239 213 207 193 190 196 209 217 232 219 208 209 210 209 212 203 194 194 190
306 295 293 285 281 301 313 314 316 323 343 296 263 252 228 212 206 207 202 202 199 166 226 200 199 204 211 211 199 193 192 191 189